| time (UTC) | temp F | wind direction | speed knots | gust knots | rain 1hr in | rain 24hr in | rain mn in | humidity % | barometer mb |
| 20260507190031 | 90 | 32 | 3.5 | 0.0 | 0.00 | 0.00 | 0.00 | 14 | 1010.7 |
| 20260507184528 | 89 | 90 | 1.7 | 0.0 | 0.00 | 0.00 | 0.00 | 15 | 1010.9 |
| 20260507183040 | 89 | 44 | 4.3 | 0.0 | 0.00 | 0.00 | 0.00 | 15 | 1011.1 |
| 20260507181524 | 88 | 28 | 3.5 | 0.0 | 0.00 | 0.00 | 0.00 | 16 | 1011.1 |
| 20260507180031 | 88 | 109 | 4.3 | 0.0 | 0.00 | 0.00 | 0.00 | 17 | 1011.3 |
| 20260507174521 | 87 | 120 | 3.5 | 0.0 | 0.00 | 0.00 | 0.00 | 17 | 1011.4 |
| 20260507173019 | 86 | 95 | 3.5 | 0.0 | 0.00 | 0.00 | 0.00 | 18 | 1011.3 |
| 20260507171516 | 86 | 54 | 3.5 | 0.0 | 0.00 | 0.00 | 0.00 | 18 | 1011.3 |
| 20260507170017 | 85 | 107 | 2.6 | 0.0 | 0.00 | 0.00 | 0.00 | 20 | 1011.4 |
| 20260507164512 | 84 | 84 | 1.7 | 0.0 | 0.00 | 0.00 | 0.00 | 20 | 1011.4 |
| 20260507163009 | 83 | 61 | 1.7 | 0.0 | 0.00 | 0.00 | 0.00 | 21 | 1011.6 |
| 20260507161505 | 82 | 73 | 1.7 | 0.0 | 0.00 | 0.00 | 0.00 | 21 | 1011.7 |
| 20260507160014 | 82 | 305 | 1.7 | 0.0 | 0.00 | 0.00 | 0.00 | 21 | 1011.7 |
| 20260507154503 | 81 | 305 | 0.9 | 0.0 | 0.00 | 0.00 | 0.00 | 21 | 1011.7 |
| 20260507153105 | 81 | 305 | 0.9 | 0.0 | 0.00 | 0.00 | 0.00 | 22 | 1011.7 |
| 20260507151558 | 78 | 305 | 0.9 | 0.0 | 0.00 | 0.00 | 0.00 | 24 | 1011.7 |
| 20260507150054 | 76 | 305 | 0.0 | 0.0 | 0.00 | 0.00 | 0.00 | 27 | 1011.6 |
| 20260507144552 | 73 | 305 | 1.7 | 0.0 | 0.00 | 0.00 | 0.00 | 29 | 1011.7 |
| 20260507143049 | 71 | 305 | 1.7 | 0.0 | 0.00 | 0.00 | 0.00 | 31 | 1011.6 |
| 20260507141546 | 69 | 305 | 2.6 | 0.0 | 0.00 | 0.00 | 0.00 | 33 | 1011.5 |
| 20260507140050 | 67 | 293 | 1.7 | 0.0 | 0.00 | 0.00 | 0.00 | 36 | 1011.6 |
| 20260507134542 | 67 | 293 | 1.7 | 0.0 | 0.00 | 0.00 | 0.00 | 37 | 1011.5 |
| 20260507133042 | 67 | 293 | 1.7 | 0.0 | 0.00 | 0.00 | 0.00 | 36 | 1011.4 |
| 20260507131541 | 68 | 300 | 3.5 | 0.0 | 0.00 | 0.00 | 0.00 | 35 | 1011.4 |
| 20260507130050 | 68 | 188 | 4.3 | 0.0 | 0.00 | 0.00 | 0.00 | 33 | 1011.3 |
| 20260507124556 | 68 | 236 | 3.5 | 0.0 | 0.00 | 0.00 | 0.00 | 34 | 1011.2 |
| 20260507123039 | 68 | 213 | 2.6 | 0.0 | 0.00 | 0.00 | 0.00 | 36 | 1011.1 |
| 20260507121538 | 67 | 279 | 1.7 | 0.0 | 0.00 | 0.00 | 0.00 | 36 | 1011.2 |
| 20260507120038 | 67 | 236 | 3.5 | 0.0 | 0.00 | 0.00 | 0.00 | 35 | 1011.2 |
| 20260507114544 | 67 | 219 | 2.6 | 0.0 | 0.00 | 0.00 | 0.00 | 36 | 1011.2 |
| 20260507113036 | 66 | 231 | 2.6 | 0.0 | 0.00 | 0.00 | 0.00 | 38 | 1011.2 |
| 20260507111534 | 66 | 231 | 2.6 | 0.0 | 0.00 | 0.00 | 0.00 | 38 | 1011.1 |
| 20260507110042 | 66 | 231 | 2.6 | 0.0 | 0.00 | 0.00 | 0.00 | 41 | 1011.1 |
| 20260507104531 | 67 | 219 | 2.6 | 0.0 | 0.00 | 0.00 | 0.00 | 37 | 1011.1 |
| 20260507103030 | 68 | 208 | 3.5 | 0.0 | 0.00 | 0.00 | 0.00 | 37 | 1011.1 |
| 20260507101528 | 68 | 206 | 2.6 | 0.0 | 0.00 | 0.00 | 0.00 | 38 | 1011.0 |
| 20260507100027 | 69 | 218 | 1.7 | 0.0 | 0.00 | 0.00 | 0.00 | 36 | 1011.1 |
| 20260507094524 | 69 | 206 | 0.9 | 0.0 | 0.00 | 0.00 | 0.00 | 38 | 1011.1 |
| 20260507093031 | 69 | 202 | 3.5 | 0.0 | 0.00 | 0.00 | 0.00 | 36 | 1011.2 |
| 20260507091534 | 70 | 200 | 2.6 | 0.0 | 0.00 | 0.00 | 0.00 | 36 | 1011.2 |
| 20260507090020 | 69 | 233 | 2.6 | 0.0 | 0.00 | 0.00 | 0.00 | 38 | 1011.5 |
| 20260507084521 | 70 | 217 | 4.3 | 0.0 | 0.00 | 0.00 | 0.00 | 37 | 1011.7 |
| 20260507083016 | 69 | 216 | 2.6 | 0.0 | 0.00 | 0.00 | 0.00 | 40 | 1011.7 |
| 20260507081514 | 69 | 216 | 2.6 | 0.0 | 0.00 | 0.00 | 0.00 | 40 | 1011.9 |
| 20260507080012 | 70 | 133 | 0.9 | 0.0 | 0.00 | 0.00 | 0.00 | 40 | 1012.0 |
| 20260507074512 | 70 | 133 | 1.7 | 0.0 | 0.00 | 0.00 | 0.00 | 41 | 1012.0 |
| 20260507073012 | 69 | 133 | 0.9 | 0.0 | 0.00 | 0.00 | 0.00 | 40 | 1012.0 |
| 20260507071509 | 70 | 133 | 2.6 | 0.0 | 0.00 | 0.00 | 0.00 | 41 | 1012.0 |
| 20260507070004 | 71 | 133 | 1.7 | 0.0 | 0.00 | 0.00 | 0.00 | 41 | 1012.1 |
| 20260507064503 | 71 | 157 | 3.5 | 0.0 | 0.00 | 0.00 | 0.00 | 41 | 1011.9 |
| 20260507063008 | 73 | 217 | 2.6 | 0.0 | 0.00 | 0.00 | 0.00 | 38 | 1012.0 |
| 20260507061502 | 74 | 304 | 3.5 | 0.0 | 0.00 | 0.00 | 0.00 | 39 | 1012.0 |
| 20260507060002 | 74 | 280 | 2.6 | 0.0 | 0.00 | 0.00 | 0.00 | 38 | 1012.0 |
| 20260507054500 | 75 | 264 | 4.3 | 0.0 | 0.00 | 0.00 | 0.00 | 37 | 1011.9 |
| 20260507053000 | 76 | 261 | 4.3 | 0.0 | 0.00 | 0.00 | 0.00 | 36 | 1012.2 |
| 20260507051604 | 76 | 252 | 6.1 | 0.0 | 0.00 | 0.00 | 0.00 | 36 | 1012.2 |
| 20260507044600 | 77 | 292 | 9.6 | 0.0 | 0.00 | 0.00 | 0.00 | 35 | 1012.0 |
| 20260507043059 | 77 | 251 | 5.2 | 0.0 | 0.00 | 0.00 | 0.00 | 35 | 1012.0 |
| 20260507041558 | 77 | 258 | 5.2 | 0.0 | 0.00 | 0.00 | 0.00 | 35 | 1012.0 |
| 20260507040110 | 77 | 258 | 3.5 | 0.0 | 0.00 | 0.00 | 0.00 | 35 | 1011.9 |
| 20260507034604 | 77 | 285 | 3.5 | 0.0 | 0.00 | 0.00 | 0.00 | 34 | 1011.8 |
| 20260507033102 | 77 | 310 | 2.6 | 0.0 | 0.00 | 0.00 | 0.00 | 24 | 1011.8 |
| 20260507031604 | 78 | 79 | 1.7 | 0.0 | 0.00 | 0.00 | 0.00 | 21 | 1011.5 |
| 20260507030055 | 78 | 79 | 1.7 | 0.0 | 0.00 | 0.00 | 0.00 | 20 | 1011.4 |
| 20260507024556 | 79 | 79 | 0.9 | 0.0 | 0.00 | 0.00 | 0.00 | 20 | 1011.2 |
| 20260507023053 | 79 | 79 | 1.7 | 0.0 | 0.00 | 0.00 | 0.00 | 19 | 1011.1 |
| 20260507021552 | 80 | 79 | 1.7 | 0.0 | 0.00 | 0.00 | 0.00 | 19 | 1010.9 |
| 20260507020054 | 81 | 74 | 1.7 | 0.0 | 0.00 | 0.00 | 0.00 | 18 | 1010.9 |
| 20260507014555 | 81 | 84 | 2.6 | 0.0 | 0.00 | 0.00 | 0.00 | 18 | 1011.0 |
| 20260507013108 | 82 | 109 | 1.7 | 0.0 | 0.00 | 0.00 | 0.00 | 18 | 1010.9 |
| 20260507011551 | 82 | 124 | 3.5 | 0.0 | 0.00 | 0.00 | 0.00 | 18 | 1010.9 |
| 20260507004550 | 82 | 167 | 1.7 | 0.0 | 0.00 | 0.00 | 0.00 | 18 | 1010.9 |
| 20260507003048 | 82 | 127 | 5.2 | 0.0 | 0.00 | 0.00 | 0.00 | 18 | 1011.0 |
| 20260507001551 | 82 | 108 | 3.5 | 0.0 | 0.00 | 0.00 | 0.00 | 18 | 1010.9 |
| 20260507000047 | 82 | 63 | 6.1 | 0.0 | 0.00 | 0.00 | 0.00 | 18 | 1011.0 |
| 20260506234548 | 82 | 101 | 4.3 | 0.0 | 0.00 | 0.00 | 0.00 | 19 | 1011.0 |
| 20260506233059 | 82 | 130 | 1.7 | 0.0 | 0.00 | 0.00 | 0.00 | 19 | 1011.1 |
| 20260506231542 | 82 | 83 | 3.5 | 0.0 | 0.00 | 0.00 | 0.00 | 19 | 1011.2 |
| 20260506230039 | 82 | 111 | 6.1 | 0.0 | 0.00 | 0.00 | 0.00 | 19 | 1011.4 |
| 20260506224537 | 81 | 142 | 5.2 | 0.0 | 0.00 | 0.00 | 0.00 | 19 | 1011.6 |
| 20260506223034 | 81 | 35 | 4.3 | 0.0 | 0.00 | 0.00 | 0.00 | 19 | 1011.9 |
| 20260506221533 | 81 | 114 | 3.5 | 0.0 | 0.00 | 0.00 | 0.00 | 19 | 1012.1 |
| 20260506220031 | 80 | 55 | 3.5 | 0.0 | 0.00 | 0.00 | 0.00 | 20 | 1012.3 |
| 20260506214528 | 81 | 143 | 3.5 | 0.0 | 0.00 | 0.00 | 0.00 | 20 | 1012.5 |
| 20260506213027 | 80 | 104 | 4.3 | 0.0 | 0.00 | 0.00 | 0.00 | 20 | 1012.7 |
| 20260506211528 | 80 | 89 | 4.3 | 0.0 | 0.00 | 0.00 | 0.00 | 20 | 1013.0 |
| 20260506210032 | 80 | 152 | 6.1 | 0.0 | 0.00 | 0.00 | 0.00 | 20 | 1013.1 |
| 20260506204523 | 79 | 128 | 3.5 | 0.0 | 0.00 | 0.00 | 0.00 | 20 | 1013.3 |
| 20260506203021 | 79 | 93 | 5.2 | 0.0 | 0.00 | 0.00 | 0.00 | 21 | 1013.4 |
| 20260506201519 | 79 | 33 | 3.5 | 0.0 | 0.00 | 0.00 | 0.00 | 22 | 1013.6 |
| 20260506200032 | 77 | 217 | 5.2 | 0.0 | 0.00 | 0.00 | 0.00 | 23 | 1013.9 |
| 20260506194516 | 77 | 291 | 4.3 | 0.0 | 0.00 | 0.00 | 0.00 | 22 | 1014.2 |
| 20260506193014 | 77 | 80 | 5.2 | 0.0 | 0.00 | 0.00 | 0.00 | 24 | 1014.2 |
| 20260506191512 | 77 | 75 | 3.5 | 0.0 | 0.00 | 0.00 | 0.00 | 24 | 1014.3 |